THORAD AGENA D DEB, 42534

Orbit data source: Space-Track

THORAD AGENA D DEB, 42534 is space debris in SSO originally from a launch on Wed, 08 Apr 1970 UTC launched from the Air Force Western Test Range (AFWTR). Debris objects in space refer to the collection of defunct objects orbiting the Earth. Examples of debris include non-operational satellites, rocket bodies, and fragments generated from explosions, collisions, or faulty payload assembly.

Loading next visibility...
Identifier
42534, 1970-025SQ
Orbit
SSO
Country
Flag of USUS
Related business
Manufacturer
Unknown
Mission
Spacecraft
Bus & Motor
Unknown
Mass
Unknown
Launch date (UTC)
1970-04-08 (56 years ago)
Launch vehicle
Unknown
Launch site
Air Force Western Test Range (AFWTR)
Object type
Payload
Rocket body
Debris
Shape & HBR
Unknown shape, 0.1 m
Radar Cross Section
Small (<0.1 m²)

Expand to show TLE details & history
Last TLE update: 1 month ago

TLE from 1 month ago
0 THORAD AGENA D DEB
1 42534U 70025SQ  25356.69191888  .00000106  00000-0  50664-3 0  9994
2 42534 101.7318  85.5299 0192550 102.0486 260.2259 12.95549049565473
Epoch: 2025-12-22T16:36Z
TLE epoch observation values (Epoch: 2025-12-22T16:36:21.791Z)
Latitude
Longitude
104.95273°
Altitude
1,309.996 km
Speed
7.189 km/s
True Right ascension
05h 42m 07s
True Declination
0° 00' 00"
Sunlit
Object was in full shadow at epoch
Visualization orbit readout
Latitude
Unknown
Longitude
Unknown
Altitude
Unknown
Speed
Unknown
Apparent Right ascension
Unknown
Apparent Declination
Unknown
Sunlit
N/A
Visualization observer readout
Local Sidereal Time
13:28:09
Azimuth
Unknown
Elevation
Unknown
Doppler factor
Unknown
Orbital elements
Apogee altitude
1,424.465 km
Perigee altitude
1,129.663 km
Semi-major axis
7,655.201 km
Eccentricity
0.01926
Inclination
101.7318°
RAAN
85.5299°
Arg. of periapsis
102.0486°
True anomaly
258.06083°
Mean anomaly
260.2259°
Eccentric anomaly
259.14242°
Mean motion
3.24047 °/min
Orbital period
111.09 mins
BSTAR
0.00050664

Documentation

Showing up to 5 results
|